�v������,���O�C��(��),���O���x(��),�Ɠx(lx),��O�J�Z���T�[(1:�~�J),����(m/s)
2023-03-01 00:00:00,6.9,83,0,0.0,0
2023-03-01 00:10:00,6.8,83.4,0,0.0,1
2023-03-01 00:20:00,6.7,83.4,0,0.0,3
2023-03-01 00:30:00,6.6,85.7,2,0.0,1.5
2023-03-01 00:40:00,6.6,85,0,0.0,2
2023-03-01 00:50:00,6.4,85,0,0.0,1.5
2023-03-01 01:00:00,6.6,84.8,0,0.0,1
2023-03-01 01:10:00,6.6,84.3,0,0.0,1
2023-03-01 01:20:00,6.7,83.5,0,0.0,1.5
2023-03-01 01:30:00,6.8,83,2,0.0,1
2023-03-01 01:40:00,6.8,83.4,0,0.0,2
2023-03-01 01:50:00,6.8,85.3,0,0.0,2
2023-03-01 02:00:00,7.1,85.7,0,0.0,1.5
2023-03-01 02:10:00,6.9,87.3,0,0.0,1
2023-03-01 02:20:00,6.8,87.5,0,0.0,0
2023-03-01 02:30:00,6.7,86.6,0,0.0,1
2023-03-01 02:40:00,6.2,88.5,0,0.0,1
2023-03-01 02:50:00,6.4,90,0,0.0,1
2023-03-01 03:00:00,6.4,89.9,0,0.0,1
2023-03-01 03:10:00,6.6,89.4,0,0.0,1
2023-03-01 03:20:00,6.6,88.2,0,0.0,0
2023-03-01 03:30:00,6.5,88.6,0,0.0,1.5
2023-03-01 03:40:00,6.4,89,0,0.0,1
2023-03-01 03:50:00,6.5,90,0,0.0,1
2023-03-01 04:00:00,6.4,91.8,0,0.0,1
2023-03-01 04:10:00,6.1,92,0,0.0,1
2023-03-01 04:20:00,6.1,91.9,0,0.0,1
2023-03-01 04:30:00,5.9,91.5,0,0.0,1
2023-03-01 04:40:00,6,91.6,0,0.0,1
2023-03-01 04:50:00,6,91.7,0,0.0,1
2023-03-01 05:00:00,5.9,92.3,0,0.0,2
2023-03-01 05:10:00,5.8,92.2,0,0.0,1
2023-03-01 05:20:00,5.8,92.5,0,0.0,1
2023-03-01 05:30:00,5.7,93.5,0,0.0,1
2023-03-01 05:40:00,5.6,94.1,0,0.0,1.5
2023-03-01 05:50:00,5.6,94.5,0,0.0,0.5
2023-03-01 06:00:00,5.5,94.7,0,0.0,1
2023-03-01 06:10:00,5.5,94.6,2,0.0,1
2023-03-01 06:20:00,5.4,95,2,0.0,1
2023-03-01 06:30:00,5.4,95.3,28,0.0,1
2023-03-01 06:40:00,5.5,95.3,204,0.0,1
2023-03-01 06:50:00,5.2,96.1,999.68,0.0,1
2023-03-01 07:00:00,5.3,95.9,1999.36,0.0,2
2023-03-01 07:10:00,5.5,95.6,2997.76,0.0,1
2023-03-01 07:20:00,5.4,95.7,8995.84,0.0,1
2023-03-01 07:30:00,5.7,96.1,11991,0.0,1.5
2023-03-01 07:40:00,5.9,95.6,14991.4,0.0,2
2023-03-01 07:50:00,6,95.3,9999.36,0.0,0
2023-03-01 08:00:00,6.3,95.2,9999.36,0.0,1
2023-03-01 08:10:00,6.6,94.1,24494.1,0.0,1
2023-03-01 08:20:00,7,91.8,32993.3,0.0,2
2023-03-01 08:30:00,7.3,89.2,17991.7,0.0,2
2023-03-01 08:40:00,7.9,87.4,13998.1,0.0,1
2023-03-01 08:50:00,7.8,87.2,26480.6,0.0,0.5
2023-03-01 09:00:00,8.6,84.4,28999.7,0.0,1
2023-03-01 09:10:00,9.3,81.8,25989.1,0.0,1
2023-03-01 09:20:00,9.7,80.5,21995.5,0.0,1
2023-03-01 09:30:00,10.4,79.4,27996.2,0.0,0
2023-03-01 09:40:00,10.9,76.8,28999.7,0.0,1
2023-03-01 09:50:00,11.8,74,27996.2,0.0,1
2023-03-01 10:00:00,12.2,70.5,27996.2,0.0,1
2023-03-01 10:10:00,12.5,69.6,27996.2,0.0,1
2023-03-01 10:20:00,13,68,26992.6,0.0,1
2023-03-01 10:30:00,13.8,65,23982.1,0.0,1
2023-03-01 10:40:00,14.5,63.4,19998.7,0.0,1
2023-03-01 10:50:00,15.4,59.6,24985.6,0.0,1
2023-03-01 11:00:00,17.1,49.3,26992.6,0.0,3
2023-03-01 11:10:00,18.2,43,25989.1,0.0,4
2023-03-01 11:20:00,18.5,43.4,26992.6,0.0,1
2023-03-01 11:30:00,18.7,43.2,26992.6,0.0,3
2023-03-01 11:40:00,18.8,46.3,26992.6,0.0,1
2023-03-01 11:50:00,15,59.4,28487.7,0.0,3
2023-03-01 12:00:00,14.5,63.4,26992.6,0.0,2
2023-03-01 12:10:00,13.8,68,29982.7,0.0,6
2023-03-01 12:20:00,13.8,70.7,25989.1,0.0,3
2023-03-01 12:30:00,14.2,68.5,31989.8,0.0,1
2023-03-01 12:40:00,13.9,70.6,25989.1,0.0,3
2023-03-01 12:50:00,13.6,71.7,27484.2,0.0,2
2023-03-01 13:00:00,13.9,70.6,32993.3,0.0,2
2023-03-01 13:10:00,14.5,66.4,33996.8,0.0,2.5
2023-03-01 13:20:00,14.9,62.3,38993.9,0.0,2.5
2023-03-01 13:30:00,15.2,62.7,32993.3,0.0,3
2023-03-01 13:40:00,14.9,65.5,28999.7,0.0,2
2023-03-01 13:50:00,14.6,67.5,22999,0.0,3
2023-03-01 14:00:00,15.1,66.5,29982.7,0.0,0
2023-03-01 14:10:00,14.6,68.3,23982.1,0.0,2
2023-03-01 14:20:00,15,67,31989.8,0.0,3
2023-03-01 14:30:00,15.2,65.3,28487.7,0.0,2
2023-03-01 14:40:00,15.6,63.7,19998.7,0.0,1.5
2023-03-01 14:50:00,15.1,65.9,21995.5,0.0,3
2023-03-01 15:00:00,15.3,65.2,18995.2,0.0,2.5
2023-03-01 15:10:00,15.6,64.2,17991.7,0.0,3
2023-03-01 15:20:00,15.7,64.2,17991.7,0.0,1
2023-03-01 15:30:00,15.5,64.1,15994.9,0.0,1
2023-03-01 15:40:00,15.3,63.9,10997.8,0.0,1.5
2023-03-01 15:50:00,15.1,66.9,9999.36,0.0,0
2023-03-01 16:00:00,15.3,66.7,7997.44,0.0,1
2023-03-01 16:10:00,15.2,65,10997.8,0.0,1
2023-03-01 16:20:00,15.1,67.5,8995.84,0.0,1
2023-03-01 16:30:00,15.1,68.9,5995.52,0.0,1.5
2023-03-01 16:40:00,15.1,67.6,3998.72,0.0,2
2023-03-01 16:50:00,14.9,67.3,2997.76,0.0,3
2023-03-01 17:00:00,15.1,67.5,2997.76,0.0,2
2023-03-01 17:10:00,15.2,68.5,2997.76,0.0,1
2023-03-01 17:20:00,15,68.2,8995.84,0.0,2
2023-03-01 17:30:00,15.1,67.9,1999.36,0.0,2
2023-03-01 17:40:00,15,66.9,2997.76,0.0,1
2023-03-01 17:50:00,15.2,64.2,1999.36,0.0,0
2023-03-01 18:00:00,16,53.5,999.68,0.0,3
2023-03-01 18:10:00,16.1,54.1,158,0.0,2
2023-03-01 18:20:00,16.4,54.4,28,0.0,1
2023-03-01 18:30:00,16.1,55.9,4,0.0,3
2023-03-01 18:40:00,15.7,60.8,2,0.0,3
2023-03-01 18:50:00,15.3,64.1,2,0.0,2.5
2023-03-01 19:00:00,14.9,67.7,2,0.0,4
2023-03-01 19:10:00,14.7,72.5,2,0.0,2
2023-03-01 19:20:00,14.2,74.3,2,0.0,2
2023-03-01 19:30:00,14.2,75.6,2,0.0,0
2023-03-01 19:40:00,13.9,75.7,2,0.0,2
2023-03-01 19:50:00,14.1,75.9,2,0.0,1
2023-03-01 20:00:00,14.1,76.2,2,0.0,1
2023-03-01 20:10:00,14.1,77.2,2,0.0,1
2023-03-01 20:20:00,13.8,78.7,2,0.0,1
2023-03-01 20:30:00,13,85.3,2,1.0,2
2023-03-01 20:40:00,12.3,92.4,2,1.0,1
2023-03-01 20:50:00,11.7,93.9,2,1.0,3.5
2023-03-01 21:00:00,11.6,95.3,2,1.0,1
2023-03-01 21:10:00,11.4,95.5,2,1.0,1
2023-03-01 21:20:00,11.3,96.1,2,1.0,1
2023-03-01 21:30:00,11.4,96.7,2,1.0,1
2023-03-01 21:40:00,11.5,96.9,2,1.0,1
2023-03-01 21:50:00,11.4,96.6,2,0.0,1
2023-03-01 22:00:00,11.2,96.3,2,0.0,1
2023-03-01 22:10:00,11.1,96.8,2,0.0,1.5
2023-03-01 22:20:00,11.4,97.3,2,1.0,0
2023-03-01 22:30:00,11.4,97.5,2,1.0,0
2023-03-01 22:40:00,11.3,97.8,2,1.0,0
2023-03-01 22:50:00,11.4,98.4,2,0.0,0
2023-03-01 23:00:00,11.3,98.4,2,0.0,0
2023-03-01 23:10:00,11.1,98.6,2,0.0,1
2023-03-01 23:20:00,11.2,99,2,0.0,1
2023-03-01 23:30:00,11.3,98.9,2,0.0,1
2023-03-01 23:40:00,11.1,99,2,0.0,2
2023-03-01 23:50:00,11.1,98.5,2,0.0,1
2023-03-02 00:00:00,11,98.3,0,0.0,1.5
2023-03-02 00:10:00,11.2,98.1,2,0.0,2
2023-03-02 00:20:00,11,98.2,2,0.0,0
2023-03-02 00:30:00,11.1,99.1,2,0.0,1
2023-03-02 00:40:00,11.2,99.1,2,0.0,1
2023-03-02 00:50:00,11,99.1,2,0.0,0
2023-03-02 01:00:00,11.2,96.9,2,0.0,0
2023-03-02 01:10:00,11.2,96.4,2,0.0,0
2023-03-02 01:20:00,11.5,88.1,2,0.0,1
2023-03-02 01:30:00,11.5,85.2,2,0.0,1
2023-03-02 01:40:00,11.7,75.8,2,0.0,2.5
2023-03-02 01:50:00,11.6,73.4,2,0.0,3
2023-03-02 02:00:00,11.6,73.7,2,0.0,1
2023-03-02 02:10:00,11.4,74.8,2,0.0,0.5
2023-03-02 02:20:00,11.3,75.8,2,0.0,0.5
2023-03-02 02:30:00,11.1,75.5,2,0.0,1
2023-03-02 02:40:00,10.9,77.4,2,0.0,1
2023-03-02 02:50:00,10.5,67.6,2,0.0,4
2023-03-02 03:00:00,10.3,67.7,2,0.0,2
2023-03-02 03:10:00,10,67.5,2,0.0,4
2023-03-02 03:20:00,10,69.9,2,0.0,3.5
2023-03-02 03:30:00,9.7,69.5,2,0.0,2
2023-03-02 03:40:00,9.4,67,2,0.0,5.5
2023-03-02 03:50:00,9.4,64.3,2,0.0,4.5
2023-03-02 04:00:00,9.2,64.4,0,0.0,5.5
2023-03-02 04:10:00,8.9,68,2,0.0,6
2023-03-02 04:20:00,9,65.1,0,0.0,5
2023-03-02 04:30:00,9.1,62.1,2,0.0,5
2023-03-02 04:40:00,9,58.7,0,0.0,6
2023-03-02 04:50:00,8.9,58.8,2,0.0,2.5
2023-03-02 05:00:00,8.6,57.2,2,0.0,2
2023-03-02 05:10:00,8.7,54.5,2,0.0,5
2023-03-02 05:20:00,8.5,54.3,0,0.0,3
2023-03-02 05:30:00,8.5,52.7,0,0.0,3
2023-03-02 05:40:00,8.5,51.5,2,0.0,5
2023-03-02 05:50:00,8.4,52,2,0.0,5.5
2023-03-02 06:00:00,8.5,52.4,2,0.0,2
2023-03-02 06:10:00,8.1,51.7,2,0.0,4
2023-03-02 06:20:00,7.9,50.1,8,0.0,7
2023-03-02 06:30:00,7.8,50.1,122,0.0,5
2023-03-02 06:40:00,7.7,49.1,499.84,0.0,3
2023-03-02 06:50:00,7.8,50.4,999.68,0.0,4
2023-03-02 07:00:00,7.5,50.2,1999.36,0.0,4
2023-03-02 07:10:00,7.4,50.7,3998.72,0.0,1
2023-03-02 07:20:00,7.2,49.9,13998.1,0.0,3
2023-03-02 07:30:00,7.4,51.3,6999.04,0.0,3.5
2023-03-02 07:40:00,7.4,51,7997.44,0.0,2
2023-03-02 07:50:00,7.4,50.5,10997.8,0.0,3.5
2023-03-02 08:00:00,7.4,49,33996.8,0.0,2
2023-03-02 08:10:00,7.5,46.9,30986.2,0.0,3
2023-03-02 08:20:00,7.5,48.7,36495.4,0.0,4
2023-03-02 08:30:00,7.8,49.1,35983.4,0.0,2
2023-03-02 08:40:00,8,48.3,35983.4,0.0,5
2023-03-02 08:50:00,7.6,45.1,36986.9,0.0,1.5
2023-03-02 09:00:00,8.1,46.1,37990.4,0.0,1
2023-03-02 09:10:00,8.3,46.5,37498.9,0.0,5.5
2023-03-02 09:20:00,8.2,46.8,38993.9,0.0,2.5
2023-03-02 09:30:00,8.3,44.1,36986.9,0.0,7.5
2023-03-02 09:40:00,8.2,44.1,36986.9,0.0,6
2023-03-02 09:50:00,8.3,43,26992.6,0.0,2.5
2023-03-02 10:00:00,8.5,45.1,37498.9,0.0,4.5
2023-03-02 10:10:00,8.5,44.7,38481.9,0.0,5
2023-03-02 10:20:00,8.5,44.2,33484.8,0.0,4.5
2023-03-02 10:30:00,8.7,43.2,36986.9,0.0,5
2023-03-02 10:40:00,8.3,42.7,20992,0.0,9.5
2023-03-02 10:50:00,8.6,45.8,33484.8,0.0,10
2023-03-02 11:00:00,8.7,43.2,35983.4,0.0,4
2023-03-02 11:10:00,9,44.1,31989.8,0.0,5
2023-03-02 11:20:00,8.7,43.5,35983.4,0.0,4
2023-03-02 11:30:00,9,43,26992.6,0.0,5
2023-03-02 11:40:00,9,42.7,32993.3,0.0,4.5
2023-03-02 11:50:00,8.8,43.5,25989.1,0.0,6
2023-03-02 12:00:00,9.1,41.3,27996.2,0.0,3
2023-03-02 12:10:00,9.2,42.3,25989.1,0.0,7.5
2023-03-02 12:20:00,8.7,41.4,21995.5,0.0,10.5
2023-03-02 12:30:00,9.4,42,25989.1,0.0,4
2023-03-02 12:40:00,8.6,43.9,25497.6,0.0,7.5
2023-03-02 12:50:00,8.8,41.6,26992.6,0.0,12
2023-03-02 13:00:00,8.8,42,25989.1,0.0,4
2023-03-02 13:10:00,9.5,40.8,26992.6,0.0,3
2023-03-02 13:20:00,9.4,41.4,26992.6,0.0,3.5
2023-03-02 13:30:00,9.2,39,27996.2,0.0,5
2023-03-02 13:40:00,9.4,41.7,29982.7,0.0,4
2023-03-02 13:50:00,9,38.6,27996.2,0.0,4
2023-03-02 14:00:00,9.5,40.9,28999.7,0.0,4
2023-03-02 14:10:00,9.3,37.2,29982.7,0.0,6.5
2023-03-02 14:20:00,9.3,40.1,29982.7,0.0,4.5
2023-03-02 14:30:00,9.5,39.4,30986.2,0.0,7
2023-03-02 14:40:00,9.7,38.7,31989.8,0.0,2.5
2023-03-02 14:50:00,9.3,42.4,14499.8,0.0,7.5
2023-03-02 15:00:00,9.4,41.9,32993.3,0.0,4.5
2023-03-02 15:10:00,9.8,41.7,36986.9,0.0,4
2023-03-02 15:20:00,9.9,44.3,34979.8,0.0,1
2023-03-02 15:30:00,9.8,42.1,34979.8,0.0,2.5
2023-03-02 15:40:00,9.4,47.7,31989.8,0.0,3
2023-03-02 15:50:00,9.3,52.2,32993.3,0.0,4
2023-03-02 16:00:00,8.7,56.2,13998.1,0.0,3
2023-03-02 16:10:00,8.7,57.1,18995.2,0.0,3
2023-03-02 16:20:00,8.5,57.8,27996.2,0.0,1.5
2023-03-02 16:30:00,8.6,58.2,13496.3,0.0,2
2023-03-02 16:40:00,8.1,59.1,22999,0.0,6
2023-03-02 16:50:00,8.6,56.7,13998.1,0.0,2
2023-03-02 17:00:00,8.5,58,19998.7,0.0,2.5
2023-03-02 17:10:00,8.5,56.8,17991.7,0.0,3.5
2023-03-02 17:20:00,8.2,56.6,6999.04,0.0,4.5
2023-03-02 17:30:00,7.9,57.4,4999.68,0.0,3.5
2023-03-02 17:40:00,7.7,57.2,3998.72,0.0,2
2023-03-02 17:50:00,7.6,55.8,3998.72,0.0,3
2023-03-02 18:00:00,7.7,57.6,1999.36,0.0,6
2023-03-02 18:10:00,7.4,58.2,999.68,0.0,5.5
2023-03-02 18:20:00,7.4,58.3,184,0.0,5
2023-03-02 18:30:00,7.4,60.6,22,0.0,3
2023-03-02 18:40:00,7.2,62.2,2,0.0,1
2023-03-02 18:50:00,6.9,64.4,2,0.0,1
2023-03-02 19:00:00,7,65.5,2,0.0,2
2023-03-02 19:10:00,6.8,65.6,2,0.0,1
2023-03-02 19:20:00,7,64.9,2,0.0,1
2023-03-02 19:30:00,6.8,63.8,2,0.0,0.5
2023-03-02 19:40:00,6.7,64,2,0.0,1
2023-03-02 19:50:00,6.8,64.1,2,0.0,1
2023-03-02 20:00:00,6.7,65,2,0.0,2
2023-03-02 20:10:00,6.7,66.1,2,0.0,1
2023-03-02 20:20:00,6.6,66.9,2,0.0,2
2023-03-02 20:30:00,6.5,66.2,2,0.0,2
2023-03-02 20:40:00,6.6,66.5,2,0.0,1
2023-03-02 20:50:00,6.3,67.3,2,0.0,2
2023-03-02 21:00:00,6.7,67.1,2,0.0,1.5
2023-03-02 21:10:00,6.5,66,2,0.0,1
2023-03-02 21:20:00,6.5,65.5,2,0.0,2
2023-03-02 21:30:00,6.5,65.9,0,0.0,2
2023-03-02 21:40:00,6.3,66.5,0,0.0,2
2023-03-02 21:50:00,6.1,68.2,0,0.0,2
2023-03-02 22:00:00,6.2,69.2,2,0.0,1
2023-03-02 22:10:00,6,69,0,0.0,2.5
2023-03-02 22:20:00,6,71.1,0,0.0,1
2023-03-02 22:30:00,5.9,71.9,0,0.0,2
2023-03-02 22:40:00,5.8,72.3,0,0.0,2
2023-03-02 22:50:00,5.8,73.1,0,0.0,1
2023-03-02 23:00:00,5.9,72.9,0,0.0,3
2023-03-02 23:10:00,5.8,74.2,0,0.0,1.5
2023-03-02 23:20:00,5.8,72.5,0,0.0,0
2023-03-02 23:30:00,5.9,70.5,2,0.0,1.5
2023-03-02 23:40:00,5.8,70.8,0,0.0,1
2023-03-02 23:50:00,5.8,69.6,0,0.0,2.5
2023-03-03 00:00:00,5.8,69.8,0,0.0,0
2023-03-03 00:10:00,5.7,70.9,0,0.0,1
2023-03-03 00:20:00,5.8,71.6,0,0.0,0
2023-03-03 00:30:00,5.6,71.6,2,0.0,1
2023-03-03 00:40:00,5.4,71.8,0,0.0,1
2023-03-03 00:50:00,5.6,72.3,2,0.0,2
2023-03-03 01:00:00,5.5,71.8,0,0.0,1
2023-03-03 01:10:00,5.7,72.3,2,0.0,1
2023-03-03 01:20:00,5.5,71.7,0,0.0,1
2023-03-03 01:30:00,5.6,71,0,0.0,0
2023-03-03 01:40:00,5.6,71,0,0.0,1
2023-03-03 01:50:00,5.4,70.9,0,0.0,0.5
2023-03-03 02:00:00,5.2,71.4,0,0.0,1
2023-03-03 02:10:00,5.3,71.9,2,0.0,1
2023-03-03 02:20:00,5.4,72.1,0,0.0,0
2023-03-03 02:30:00,5.1,74.7,0,0.0,0
2023-03-03 02:40:00,4.4,78.9,0,0.0,1
2023-03-03 02:50:00,4.2,81.6,0,0.0,1
2023-03-03 03:00:00,4,83.3,0,0.0,1
2023-03-03 03:10:00,3.7,83.8,0,0.0,1
2023-03-03 03:20:00,3.4,84.8,0,0.0,1
2023-03-03 03:30:00,3.2,85.5,0,0.0,1
2023-03-03 03:40:00,3.1,84.7,0,0.0,1
2023-03-03 03:50:00,2.9,84.4,0,0.0,2
2023-03-03 04:00:00,2.5,84.5,0,0.0,1
2023-03-03 04:10:00,2.6,84.4,0,0.0,2
2023-03-03 04:20:00,2.3,83.8,0,0.0,0.5
2023-03-03 04:30:00,2.5,83.2,0,0.0,1
2023-03-03 04:40:00,2.2,82.9,0,0.0,1
2023-03-03 04:50:00,2.4,82.2,0,0.0,1
2023-03-03 05:00:00,2.2,82,0,0.0,2
2023-03-03 05:10:00,2.3,82,0,0.0,1
2023-03-03 05:20:00,2.4,81.3,0,0.0,1
2023-03-03 05:30:00,2.2,81.7,0,0.0,0
2023-03-03 05:40:00,2,82,0,0.0,1
2023-03-03 05:50:00,2,83,0,0.0,1
2023-03-03 06:00:00,2,83.8,2,0.0,2
2023-03-03 06:10:00,2,84.1,2,0.0,1.5
2023-03-03 06:20:00,1.7,84.3,26,0.0,1
2023-03-03 06:30:00,1.6,84.5,213.92,0.0,1
2023-03-03 06:40:00,1.3,85,999.68,0.0,1.5
2023-03-03 06:50:00,1.4,85.7,1999.36,0.0,1
2023-03-03 07:00:00,1.4,86,8995.84,0.0,2
2023-03-03 07:10:00,1.4,85.9,15994.9,0.0,2
2023-03-03 07:20:00,1.4,85.8,20992,0.0,3
2023-03-03 07:30:00,1.8,84.9,25989.1,0.0,1
2023-03-03 07:40:00,1.9,84.4,28999.7,0.0,2
2023-03-03 07:50:00,2.2,83,32993.3,0.0,1
2023-03-03 08:00:00,2.3,82.3,33996.8,0.0,2
2023-03-03 08:10:00,2.8,81.5,33996.8,0.0,1
2023-03-03 08:20:00,3,79.6,34979.8,0.0,1
2023-03-03 08:30:00,3.6,76.8,33996.8,0.0,1
2023-03-03 08:40:00,4.1,75.1,33996.8,0.0,1
2023-03-03 08:50:00,4.6,72.3,32993.3,0.0,1.5
2023-03-03 09:00:00,4.9,70.8,31989.8,0.0,0
2023-03-03 09:10:00,5.5,69,30986.2,0.0,1
2023-03-03 09:20:00,6.1,66.6,29982.7,0.0,2
2023-03-03 09:30:00,6.7,64.7,27996.2,0.0,1.5
2023-03-03 09:40:00,7.1,61.7,27996.2,0.0,1
2023-03-03 09:50:00,7.6,59.2,25989.1,0.0,1
2023-03-03 10:00:00,7.9,53.4,25989.1,0.0,0
2023-03-03 10:10:00,8.2,51,26992.6,0.0,1
2023-03-03 10:20:00,8.1,52,23982.1,0.0,1
2023-03-03 10:30:00,8.6,51,23982.1,0.0,1
2023-03-03 10:40:00,9.4,49.6,24985.6,0.0,1
2023-03-03 10:50:00,9,50.4,24985.6,0.0,1
2023-03-03 11:00:00,9,49.2,24985.6,0.0,1
2023-03-03 11:10:00,9,48.2,24985.6,0.0,1.5
2023-03-03 11:20:00,9.7,46.7,24985.6,0.0,1
2023-03-03 11:30:00,10,46.5,23982.1,0.0,3
2023-03-03 11:40:00,9.8,46.6,23982.1,0.0,2.5
2023-03-03 11:50:00,10.1,45.7,24985.6,0.0,1
2023-03-03 12:00:00,10.5,43.7,24985.6,0.0,5
2023-03-03 12:10:00,9.8,46.1,24985.6,0.0,1
2023-03-03 12:20:00,10.4,46.6,24985.6,0.0,2
2023-03-03 12:30:00,10.6,45.3,24985.6,0.0,1
2023-03-03 12:40:00,11.1,43.3,25989.1,0.0,2
2023-03-03 12:50:00,10.9,43,25989.1,0.0,3
2023-03-03 13:00:00,11.4,43.2,26992.6,0.0,1
2023-03-03 13:10:00,11.5,40.9,27996.2,0.0,1
2023-03-03 13:20:00,11.3,38,29982.7,0.0,1.5
2023-03-03 13:30:00,10.7,43.8,28999.7,0.0,2
2023-03-03 13:40:00,11.2,43.8,28999.7,0.0,1
2023-03-03 13:50:00,11.4,43.3,28999.7,0.0,2
2023-03-03 14:00:00,12.1,42.5,28999.7,0.0,3
2023-03-03 14:10:00,11.8,43.1,29982.7,0.0,2
2023-03-03 14:20:00,11.4,45.5,29982.7,0.0,3
2023-03-03 14:30:00,11.3,47.3,30986.2,0.0,3
2023-03-03 14:40:00,11,48.2,25989.1,0.0,2
2023-03-03 14:50:00,10.5,48.3,29982.7,0.0,3
2023-03-03 15:00:00,10.7,48.5,26992.6,0.0,3
2023-03-03 15:10:00,10.6,48.6,29982.7,0.0,2
2023-03-03 15:20:00,10.3,50.5,29982.7,0.0,3
2023-03-03 15:30:00,10,51.7,28999.7,0.0,3
2023-03-03 15:40:00,10.1,53,27996.2,0.0,4
2023-03-03 15:50:00,10.1,52.4,26992.6,0.0,4
2023-03-03 16:00:00,10.1,53.1,26992.6,0.0,3
2023-03-03 16:10:00,10.3,53.5,25989.1,0.0,2
2023-03-03 16:20:00,9.9,55.4,23982.1,0.0,1
2023-03-03 16:30:00,10.1,55.2,22999,0.0,2
2023-03-03 16:40:00,9.8,55,20992,0.0,3
2023-03-03 16:50:00,9.7,54.9,19998.7,0.0,2
2023-03-03 17:00:00,9.7,55.7,17991.7,0.0,2
2023-03-03 17:10:00,9.9,55.9,15994.9,0.0,3
2023-03-03 17:20:00,9.4,56.8,13998.1,0.0,2
2023-03-03 17:30:00,9.7,58.3,10997.8,0.0,1
2023-03-03 17:40:00,9.4,60.3,8995.84,0.0,1
2023-03-03 17:50:00,9.1,60.4,3998.72,0.0,1
2023-03-03 18:00:00,8.7,61.8,2997.76,0.0,0
2023-03-03 18:10:00,8.7,61.9,999.68,0.0,1
2023-03-03 18:20:00,8.7,61.9,200,0.0,1
2023-03-03 18:30:00,8.3,61.9,24,0.0,1
2023-03-03 18:40:00,8.2,62.1,4,0.0,1
2023-03-03 18:50:00,8.3,62.9,2,0.0,1
2023-03-03 19:00:00,8.2,63.3,2,0.0,0
2023-03-03 19:10:00,8.1,64.1,2,0.0,1
2023-03-03 19:20:00,7.9,64.8,2,0.0,1
2023-03-03 19:30:00,7.7,65.7,2,0.0,0
2023-03-03 19:40:00,7.5,69.4,2,0.0,1.5
2023-03-03 19:50:00,7.3,72.5,2,0.0,1
2023-03-03 20:00:00,7.3,72.7,2,0.0,2
2023-03-03 20:10:00,7.3,73.6,2,0.0,1
2023-03-03 20:20:00,7,74.5,0,0.0,1
2023-03-03 20:30:00,6.8,74.3,2,0.0,0
2023-03-03 20:40:00,6.9,74.4,2,0.0,0
2023-03-03 20:50:00,6.7,75.1,0,0.0,2
2023-03-03 21:00:00,6.6,75.3,2,0.0,1
2023-03-03 21:10:00,6.4,76.7,0,0.0,2
2023-03-03 21:20:00,6.4,77.1,0,0.0,1
2023-03-03 21:30:00,6,77.5,2,0.0,0.5
2023-03-03 21:40:00,6.1,77.7,2,0.0,1
2023-03-03 21:50:00,6,78,2,0.0,1
2023-03-03 22:00:00,6.1,78.5,2,0.0,1
2023-03-03 22:10:00,6,78.8,0,0.0,1
2023-03-03 22:20:00,5.9,79.1,0,0.0,1
2023-03-03 22:30:00,6,79.6,2,0.0,2
2023-03-03 22:40:00,5.8,80,0,0.0,2
2023-03-03 22:50:00,5.7,81,2,0.0,1
2023-03-03 23:00:00,5.8,80.9,0,0.0,1
2023-03-03 23:10:00,5.6,80.5,0,0.0,0.5
2023-03-03 23:20:00,5.7,80.7,0,0.0,1
2023-03-03 23:30:00,5.4,80.9,2,0.0,1
2023-03-03 23:40:00,5.5,80.9,2,0.0,1
2023-03-03 23:50:00,5.3,81.6,2,0.0,1
2023-03-04 00:00:00,5.2,81.9,2,0.0,1
2023-03-04 00:10:00,5,82.2,0,0.0,1
2023-03-04 00:20:00,5.2,82.7,0,0.0,1
2023-03-04 00:30:00,5,82.6,2,0.0,1
2023-03-04 00:40:00,5.1,82.2,0,0.0,1
2023-03-04 00:50:00,5.2,81.7,0,0.0,2
2023-03-04 01:00:00,5.2,81.4,0,0.0,1
2023-03-04 01:10:00,5.1,80.7,2,0.0,1
2023-03-04 01:20:00,5.3,79.7,2,0.0,1
2023-03-04 01:30:00,5.3,79.4,2,0.0,0.5
2023-03-04 01:40:00,5.4,79.1,0,0.0,1
2023-03-04 01:50:00,5.3,79.5,2,0.0,1
2023-03-04 02:00:00,5.3,79,2,0.0,1
2023-03-04 02:10:00,5.1,79.8,0,0.0,1
2023-03-04 02:20:00,5.1,79.2,0,0.0,1
2023-03-04 02:30:00,5.5,78.2,0,0.0,2
2023-03-04 02:40:00,5.3,79.5,2,0.0,2
2023-03-04 02:50:00,5.3,81,0,0.0,1
2023-03-04 03:00:00,5.1,81.6,0,0.0,1
2023-03-04 03:10:00,5.2,82.2,0,0.0,1
2023-03-04 03:20:00,5,82.6,0,0.0,1
2023-03-04 03:30:00,5.2,82.8,0,0.0,1
2023-03-04 03:40:00,5,82.7,0,0.0,0
2023-03-04 03:50:00,5,83.6,0,0.0,1
2023-03-04 04:00:00,4.9,84,0,0.0,1
2023-03-04 04:10:00,5,84,0,0.0,1
2023-03-04 04:20:00,4.8,84.3,0,0.0,1
2023-03-04 04:30:00,4.7,84.5,0,0.0,1
2023-03-04 04:40:00,4.9,84.4,0,0.0,0.5
2023-03-04 04:50:00,4.7,84.2,0,0.0,2.5
2023-03-04 05:00:00,4.8,84.1,0,0.0,1
2023-03-04 05:10:00,4.8,85.1,0,0.0,1
2023-03-04 05:20:00,4.7,86,2,0.0,2
2023-03-04 05:30:00,4.5,86.2,0,0.0,1.5
2023-03-04 05:40:00,4.5,86.4,0,0.0,1
2023-03-04 05:50:00,4.5,86.7,0,0.0,1
2023-03-04 06:00:00,4.3,86.8,2,0.0,1
2023-03-04 06:10:00,4.4,86.9,2,0.0,1
2023-03-04 06:20:00,4.3,86.9,10,0.0,1
2023-03-04 06:30:00,4.4,87,108,0.0,0.5
2023-03-04 06:40:00,4.3,87.4,363.84,0.0,2
2023-03-04 06:50:00,4.4,87.7,999.68,0.0,0
2023-03-04 07:00:00,4.2,88,1999.36,0.0,0
2023-03-04 07:10:00,4.4,88,4999.68,0.0,1
2023-03-04 07:20:00,4.3,88.1,6999.04,0.0,1
2023-03-04 07:30:00,4.3,88.1,18493.4,0.0,1
2023-03-04 07:40:00,4.7,87.4,22999,0.0,1
2023-03-04 07:50:00,5.1,85.8,30986.2,0.0,1
2023-03-04 08:00:00,5.3,84,30986.2,0.0,2
2023-03-04 08:10:00,5.7,82.7,24985.6,0.0,1
2023-03-04 08:20:00,5.9,80.3,17991.7,0.0,2
2023-03-04 08:30:00,6.2,79.4,29982.7,0.0,1
2023-03-04 08:40:00,6.6,77.9,15994.9,0.0,1
2023-03-04 08:50:00,6.8,76.1,21995.5,0.0,1
2023-03-04 09:00:00,7.3,74.8,18995.2,0.0,1
2023-03-04 09:10:00,7.8,73.2,26992.6,0.0,2
2023-03-04 09:20:00,8.3,71.8,26992.6,0.0,0.5
2023-03-04 09:30:00,9.3,70.3,28999.7,0.0,1
2023-03-04 09:40:00,9.3,69.7,25989.1,0.0,0.5
2023-03-04 09:50:00,9.3,70.7,27996.2,0.0,0
2023-03-04 10:00:00,9.4,74.2,28999.7,0.0,1
2023-03-04 10:10:00,9.6,67.8,31989.8,0.0,2
2023-03-04 10:20:00,9.8,68.3,26992.6,0.0,1
2023-03-04 10:30:00,9.9,69.1,24985.6,0.0,2
2023-03-04 10:40:00,10.1,65.2,25989.1,0.0,2
2023-03-04 10:50:00,10.7,57.5,31989.8,0.0,2
2023-03-04 11:00:00,11.1,59.8,28999.7,0.0,1
2023-03-04 11:10:00,11.4,59.2,33996.8,0.0,2.5
2023-03-04 11:20:00,11.6,58.1,29982.7,0.0,2
2023-03-04 11:30:00,12.4,56.4,29982.7,0.0,2
2023-03-04 11:40:00,12.3,52.7,33996.8,0.0,2
2023-03-04 11:50:00,12.7,55.3,35983.4,0.0,1
2023-03-04 12:00:00,12.9,57.9,38993.9,0.0,2.5
2023-03-04 12:10:00,12.8,57.6,32993.3,0.0,2
2023-03-04 12:20:00,13,60.2,33996.8,0.0,2
2023-03-04 12:30:00,12.7,59.3,34979.8,0.0,3.5
2023-03-04 12:40:00,12.6,55.9,37990.4,0.0,1
2023-03-04 12:50:00,13,51.4,40980.5,0.0,2
2023-03-04 13:00:00,13.5,48.2,36986.9,0.0,1
2023-03-04 13:10:00,12.7,54.1,26992.6,0.0,2
2023-03-04 13:20:00,12.7,53,24985.6,0.0,2.5
2023-03-04 13:30:00,12.2,54.5,25989.1,0.0,2
2023-03-04 13:40:00,12,55.9,24985.6,0.0,2
2023-03-04 13:50:00,11.8,57.9,24985.6,0.0,2
2023-03-04 14:00:00,11.8,57.7,25989.1,0.0,1.5
2023-03-04 14:10:00,11.9,56.4,26992.6,0.0,2
2023-03-04 14:20:00,11.8,56.4,22999,0.0,1
2023-03-04 14:30:00,11.6,56.1,22999,0.0,1.5
2023-03-04 14:40:00,11.5,58.9,19998.7,0.0,2
2023-03-04 14:50:00,11.5,58.9,17991.7,0.0,1
2023-03-04 15:00:00,11.4,61.3,14991.4,0.0,1
2023-03-04 15:10:00,11.6,55.9,15994.9,0.0,1
2023-03-04 15:20:00,11.5,59.3,11991,0.0,1
2023-03-04 15:30:00,11.6,63,12994.6,0.0,2
2023-03-04 15:40:00,10.5,70.8,10997.8,0.0,2
2023-03-04 15:50:00,10.3,71.4,10997.8,0.0,2.5
2023-03-04 16:00:00,10.2,72.4,7997.44,0.0,2.5
2023-03-04 16:10:00,9.9,69.4,6999.04,0.0,2
2023-03-04 16:20:00,10.2,66.6,5995.52,0.0,1
2023-03-04 16:30:00,10.2,65.3,4999.68,0.0,1
2023-03-04 16:40:00,10.4,65.4,5995.52,0.0,1
2023-03-04 16:50:00,10.5,58.5,4999.68,0.0,1
2023-03-04 17:00:00,10.7,53.4,4999.68,0.0,1
2023-03-04 17:10:00,11,41.6,2997.76,0.0,2
2023-03-04 17:20:00,11.1,39.3,2997.76,0.0,1
2023-03-04 17:30:00,11.1,43.2,1999.36,0.0,1
2023-03-04 17:40:00,11,43.9,999.68,0.0,1
2023-03-04 17:50:00,11,45,999.68,0.0,1
2023-03-04 18:00:00,11.1,44.7,999.68,0.0,0
2023-03-04 18:10:00,10.8,44.3,385.92,0.0,1
2023-03-04 18:20:00,11,45.3,114,0.0,1
2023-03-04 18:30:00,11,45.5,28,0.0,1
2023-03-04 18:40:00,10.8,44.9,2,0.0,1
2023-03-04 18:50:00,10.8,46.3,2,0.0,0.5
2023-03-04 19:00:00,10.7,47,2,0.0,1
2023-03-04 19:10:00,10.5,46.7,2,0.0,1
2023-03-04 19:20:00,10.7,48,2,0.0,1
2023-03-04 19:30:00,10.5,50.6,2,0.0,0
2023-03-04 19:40:00,10.2,52.6,2,0.0,0
2023-03-04 19:50:00,10.3,55,2,0.0,1
2023-03-04 20:00:00,10.1,56,2,0.0,1
2023-03-04 20:10:00,10.1,56,2,0.0,1
2023-03-04 20:20:00,10.1,57.1,2,0.0,1
2023-03-04 20:30:00,10.2,58.3,0,0.0,1
2023-03-04 20:40:00,9.9,59.3,2,0.0,0
2023-03-04 20:50:00,9.9,60.7,2,0.0,1
2023-03-04 21:00:00,9.7,62.9,2,0.0,0
2023-03-04 21:10:00,9.4,66.9,2,0.0,1
2023-03-04 21:20:00,9.3,68.8,2,0.0,2
2023-03-04 21:30:00,9.2,69.7,2,0.0,1
2023-03-04 21:40:00,9,71.7,0,0.0,1
2023-03-04 21:50:00,8.8,74,2,0.0,1
2023-03-04 22:00:00,8.5,75.1,0,0.0,1
2023-03-04 22:10:00,8.1,76.6,2,0.0,1
2023-03-04 22:20:00,8.2,79.1,2,0.0,1
2023-03-04 22:30:00,7.6,83.3,2,0.0,1
2023-03-04 22:40:00,7.6,85.7,0,0.0,0.5
2023-03-04 22:50:00,7.4,86.5,2,0.0,1
2023-03-04 23:00:00,7.2,88.3,2,0.0,1
2023-03-04 23:10:00,7.1,89.4,0,0.0,1
2023-03-04 23:20:00,7,89.6,0,0.0,0
2023-03-04 23:30:00,6.9,89.6,0,0.0,1
2023-03-04 23:40:00,6.8,89.6,0,0.0,0.5
2023-03-04 23:50:00,6.6,90.1,0,0.0,0
2023-03-05 00:00:00,6.5,89.9,2,0.0,1
2023-03-05 00:10:00,6.3,90.1,2,0.0,0
2023-03-05 00:20:00,6.2,89.7,0,0.0,1
2023-03-05 00:30:00,6,89.1,0,0.0,0
2023-03-05 00:40:00,5.7,88.6,2,0.0,1
2023-03-05 00:50:00,5.7,88.2,2,0.0,1.5